Regional Weather Roundup
Issued by NWS

Home | Current Version | Previous Version | Graphics & Text | Print | Product List | Glossary On
Versions: 1 2 3 4 5 6 7 8 9 10 11 12 13 14 15 16 17 18 19 20 21 22 23 24 25 26 27 28 29 30 31 32 33 34 35 36 37 38 39 40 41 42 43 44 45 46 47 48 49 50
000
ASUS45 KSLC 252210
RWRUT

UTAH REGIONAL WEATHER ROUNDUP
NATIONAL WEATHER SERVICE SALT LAKE CITY UT
400 PM MDT MON JUL 25 2016

UTZ001>011-023>025-252300-

NORTHERN UTAH

CITY           SKY/WX    TMP DP  RH WIND       PRES   REMARKS
BRIGHAM CITY     N/A     95  24   8 S5        30.04F
DUGWAY           N/A    101  28   8 NW7       30.02  HX  94
HILL AFB       SUNNY     94  30  10 VRB6      30.08F
LOGAN          SUNNY     94  35  12 SW6       30.05F
OGDEN          SUNNY     96  31  10 W8        30.04F HX  90
PROVO AIRPORT  MOSUNNY   99  43  14 MISG      30.02F HX  94
SALT LAKE CITY MOSUNNY  101  37  11 NW15      30.01F HX  95
VERNAL         SUNNY     92  28  10 NW15      30.14R
WENDOVER       SUNNY     95  32  11 SE9       30.03F HX  90
HEBER CITY     MOSUNNY   90  30  12 W16G30    30.12R

$$

UTZ012>022-026-027-252300-

SOUTHERN/CENTRAL UTAH

CITY           SKY/WX    TMP DP  RH WIND       PRES   REMARKS
BLANDING       SUNNY     92  38  14 S3        30.23F
BRYCE CANYON   PTSUNNY   82  39  21 SE10      30.34F
CEDAR CITY     MOSUNNY   97  40  14 SW12G18   30.13F HX  92
DELTA          SUNNY    100  25   7 SW12G18   30.04F HX  93
MILFORD        PTSUNNY   94  32  11 NW22G30   30.07S
MOAB/CYNLANDS  MOSUNNY  103  37  10 VRB6      30.01F HX  97
PRICE          PTSUNNY   89  32  13 SW26G36   30.18F
ST GEORGE      PTCLDY   106  52  16 W12G22    29.92F HX 103

$$

REGIONAL REPORTS     COLORADO/ARIZONA

CITY           SKY/WX    TMP DP  RH WIND       PRES   REMARKS
CRAIG, CO      CLOUDY    91  23   8 VRB3      30.20F
GRAND JUNCTION MOSUNNY   96  41  15 SW8       30.07F HX  92
RIFLE          SUNNY     95  33  11 NE17      30.15F HX  90
MONTROSE       CLOUDY    90  42  18 S16       30.19F
CORTEZ         CLOUDY    89  45  21 CALM      30.17F
PAGE, AZ       CLOUDY    99  45  15 VRB6      30.03F HX  95
GRAND CANYON   PTSUNNY   87  42  20 N8        30.25F
KINGMAN        SUNNY     99  50  19 SW14G30   30.01F HX  96
FLAGSTAFF      TSTM      59  56  89 CALM      30.37F

$$

REGIONAL REPORTS    NEVADA/IDAHO/WYOMING

CITY           SKY/WX    TMP DP  RH WIND       PRES   REMARKS
LAS VEGAS, NV  MOSUNNY  108  33   7 S10       29.82F HX 101
ELY            SUNNY     94  19   6 SW10G18   30.17F
ELKO           SUNNY     96  15   5 VRB6      30.09F
POCATELLO, ID  MOSUNNY   94  24   8 SW9       30.08F
BURLEY         SUNNY     91  34  13 CALM      30.04F
EVANSTON, WY   CLOUDY    90  26  10 W20G26    30.26F
ROCK SPRINGS   CLOUDY    90  25   9 SW30G36   30.23F
KEMMERER       LGT RAIN  82  30  15 SW14G43   30.26F

$$



USA.gov is the U.S. government's official web portal to all federal, state and local government web resources and services.